Find Starlink 3541

NORAD ID: 51854 Int'l Des: 2022-022 Owner: SPXS Country: US Constellation: starlink operational
LEOCIRCULAR

現在のビュー

3D地球を読み込み中...

About Starlink 3541

Starlink 3541 (NORAD 51854) is a starlink constellation satellite (v1.5) launched Mar 3, 2022 by SPXS of US. It operates in LEO, CIRCULAR orbit with a mass of 297.00 kg.

Starlink 3541について

説明を読み込み中...

次回通過

Passes for default location (London). Set your location on the main map for personalized predictions.

高度履歴

Loading altitude history...

軌道要素

1 51854U 22022C 26171.43680558 .00021881 00000-0 10559-2 0 9999
2 51854 53.2146 270.6956 0000458 292.3451 67.7497 15.18635280238635
Epoch: Jun 20, 2026 • Age: 39 hours

現在のステータス

高度 528.0 km
速度 7.60 km/s
衛星直下点 -53.30°S, 116.89°W
打ち上げ日 Mar 3, 2022
運用期間 4.3 years
タイプ internet

技術仕様

分類 Payload
質量 297.00 kg
乾燥質量 275.00 kg
総質量 297.00 kg
長さ 0.20 m
直径 2.80 m
スパン 9.00 m
形状 Box + pan
製造者 SPXS
バスタイプ Starlink
フェーズステータス In Orbit
所有者/国 SPXS/US

Most Searched